GFSNW_250_spd_189.txt.gz
Wind_Speed
87 82 82 84 85 90 89 94 88 87 88 91 93 101 104 103 104 106 103 103 100 103 108 103 107 111 112 110 113 109 110 108 107 108 92 105 114 110 118 128 126 123 128 124
93 90 89 88 93 96 94 92 97 99 100 96 103 99 100 107 108 107 112 111 109 107 111 111 109 112 114 118 117 115 113 114 114 112 105 114 125 127 126 124 131 132 130 126
108 99 95 97 92 95 100 102 96 94 100 101 105 106 109 111 115 117 116 115 115 111 112 116 112 114 115 120 121 120 121 120 125 119 120 129 130 131 127 136 134 128 129 131
98 98 102 101 102 100 102 106 104 103 101 107 112 111 113 115 116 117 119 120 123 121 123 123 120 120 119 120 123 127 123 125 130 134 140 138 137 134 136 134 136 136 130 117
114 110 106 101 105 108 107 109 115 110 109 112 115 115 113 114 123 124 125 126 126 131 134 133 128 128 121 120 125 131 136 138 141 144 143 150 144 134 139 138 131 125 118 106
124 123 114 110 109 107 111 112 118 117 118 121 118 122 124 125 124 125 127 128 129 128 131 127 127 133 134 130 134 136 141 145 146 146 150 144 132 143 138 125 112 103 96 86
129 128 123 124 114 108 114 117 117 121 123 124 125 127 131 129 132 131 129 127 128 129 136 139 136 139 137 141 140 144 144 147 149 143 141 140 136 117 110 100 89 86 80 78
131 133 129 123 124 121 122 125 127 132 131 132 131 131 128 132 133 132 133 136 137 137 141 141 144 145 148 148 149 152 154 145 144 144 140 124 103 101 91 86 76 76 71 68
108 112 121 122 129 129 129 132 135 131 134 127 124 130 131 135 136 135 139 136 140 141 145 147 148 145 143 141 139 140 141 139 141 121 111 98 85 80 74 74 68 64 64 58
109 115 118 122 125 127 131 135 134 135 134 135 134 136 137 140 147 148 148 151 146 151 145 142 142 140 138 137 134 138 135 120 108 98 91 84 74 73 69 65 59 62 59 48
124 122 125 122 123 130 133 129 130 133 138 139 143 147 146 145 147 152 155 152 149 147 144 140 136 135 139 132 125 114 105 99 90 83 77 68 65 65 64 59 56 59 47 49
127 125 126 132 132 133 136 136 138 140 141 142 144 148 152 147 148 147 146 143 140 139 137 138 137 127 114 107 100 95 90 83 74 73 64 61 57 62 56 53 52 50 48 44
122 128 131 134 138 140 141 141 143 144 143 145 149 152 151 142 134 136 134 136 137 134 129 118 109 103 98 93 85 81 74 71 67 63 59 56 51 53 51 50 50 46 43 39
111 113 116 119 122 124 124 126 127 125 126 126 127 125 126 127 131 133 129 123 114 109 104 97 92 89 85 78 73 69 66 65 62 54 55 51 50 48 49 45 47 44 40 38
107 108 110 112 116 118 118 118 121 120 119 118 122 124 127 123 115 108 103 102 98 90 86 82 79 73 72 67 62 58 61 58 55 49 51 48 49 48 48 41 43 38 37 36
112 113 113 113 115 120 123 124 122 123 119 115 110 105 101 97 93 90 87 85 82 77 73 70 65 66 62 54 52 54 56 55 56 47 46 47 48 45 47 40 40 35 34 35
116 118 116 117 117 118 118 114 106 98 95 90 90 88 85 83 77 75 76 72 67 63 60 58 56 58 53 44 42 57 57 55 50 41 41 44 42 42 39 40 37 31 32 33
106 105 104 103 99 96 91 88 82 82 79 75 74 76 74 69 64 63 62 58 54 52 49 49 49 49 43 39 51 55 52 46 40 36 37 37 38 39 39 36 33 30 30 34
82 82 82 81 79 76 72 71 69 69 68 64 64 65 61 56 50 48 48 49 44 43 43 43 40 42 40 40 41 42 43 39 36 33 35 35 35 36 33 31 27 29 31 34
65 65 64 63 61 60 60 60 60 60 57 55 54 49 53 44 40 41 46 45 39 35 37 37 36 36 34 35 35 36 36 36 35 32 32 31 30 29 29 27 28 31 37 39
52 50 49 49 50 50 48 51 52 48 45 43 44 42 41 36 40 39 39 36 32 35 33 32 33 31 33 33 33 32 32 30 29 26 27 26 26 28 27 28 32 34 35 34
40 39 41 43 41 40 42 42 38 36 36 37 36 36 32 37 33 32 30 27 29 29 30 30 25 28 27 26 28 26 25 27 26 26 27 27 27 28 30 33 35 34 33 33
30 32 34 33 34 32 32 30 30 30 30 31 31 30 30 29 26 26 23 24 25 25 26 22 25 26 23 24 26 25 25 25 26 27 28 30 29 28 29 30 32 34 34 34
16 18 20 22 24 25 25 25 24 24 24 26 26 26 25 24 23 22 22 19 20 21 21 25 26 22 23 22 23 23 25 25 26 26 24 25 26 26 29 32 34 34 35 36
8 10 11 12 14 17 18 18 18 17 17 19 20 21 22 21 21 21 19 20 20 19 21 23 20 20 21 20 20 22 23 24 25 25 26 25 26 28 30 31 30 31 32 33
7 7 8 9 10 11 13 14 14 13 11 11 14 15 15 16 18 18 18 18 15 17 21 20 18 17 20 20 20 19 20 22 23 24 26 27 27 28 30 31 32 32 33 34
4 4 5 6 7 6 6 7 9 9 9 10 10 10 11 12 13 13 13 12 12 16 17 17 18 19 19 20 21 22 23 24 25 27 29 29 30 31 30 32 34 35 35 36

GFSNW_250_spd_192.txt.gz
Wind_Speed
89 89 85 83 77 74 75 77 82 84 83 76 77 79 82 83 85 83 88 89 86 89 89 92 98 99 102 105 107 109 110 109 107 107 111 113 109 108 108 118 118 119 127 130
98 96 91 86 90 91 82 84 84 88 87 84 84 84 82 83 86 93 93 96 100 98 95 100 96 104 108 108 112 115 113 116 115 105 112 115 114 111 118 124 127 129 134 136
104 98 95 90 92 94 90 93 89 90 83 91 88 88 90 93 94 98 100 102 106 101 101 101 99 101 106 114 114 118 124 121 120 119 117 118 117 120 122 132 135 133 135 135
113 106 95 97 98 98 87 94 96 96 91 94 99 98 94 99 101 105 108 105 105 113 109 109 105 110 110 110 117 125 127 125 124 127 126 125 128 123 132 138 141 142 140 141
117 120 111 100 108 110 98 105 112 101 103 103 105 109 105 104 107 108 111 112 115 116 116 118 118 118 117 116 118 122 125 128 127 126 130 131 128 128 143 145 138 137 137 131
114 115 118 122 118 122 118 117 117 112 111 106 103 103 108 108 112 111 107 112 119 119 122 123 122 122 121 121 123 124 125 129 131 133 139 143 146 149 156 144 131 133 127 112
126 123 130 130 125 123 124 125 124 122 118 117 117 115 120 112 113 120 117 114 118 121 125 127 126 124 130 131 130 129 130 133 137 140 145 147 148 154 144 138 130 120 101 94
120 123 126 129 121 128 127 126 125 125 120 121 126 127 125 123 126 125 121 124 122 126 128 131 133 131 140 137 131 132 139 141 149 150 149 151 143 142 135 124 106 98 90 83
121 121 123 127 116 119 126 126 129 134 120 122 122 123 119 121 123 126 125 128 130 130 133 136 136 138 139 137 135 137 143 150 156 151 156 138 137 124 108 101 89 86 80 74
121 121 121 123 124 129 127 125 119 122 133 131 124 123 119 119 117 120 125 130 131 131 135 138 143 143 142 140 140 146 149 154 156 144 141 127 108 98 91 87 82 75 68 63
110 113 111 114 120 125 126 124 121 121 124 122 123 116 120 121 123 125 127 131 136 141 142 144 146 144 143 143 144 145 135 131 132 122 109 101 93 84 80 77 73 67 58 58
102 102 105 104 105 104 106 106 108 112 113 116 120 121 122 123 126 130 132 134 134 133 135 138 142 148 137 132 130 130 123 116 105 100 92 89 83 74 71 69 65 59 56 53
104 105 106 105 104 104 107 110 111 111 112 113 119 125 125 125 126 130 135 136 138 139 144 141 132 130 129 123 116 107 102 95 88 82 78 75 72 67 63 60 60 60 56 47
105 106 107 108 109 111 112 113 111 112 112 115 119 122 125 125 128 129 130 131 133 132 128 124 117 111 106 99 93 90 85 80 78 71 71 65 62 60 57 54 54 56 53 43
101 102 103 103 107 109 111 112 114 116 116 115 116 120 122 121 121 120 120 119 118 114 108 104 99 94 89 81 77 76 68 67 67 62 61 55 55 55 52 48 50 49 46 41
97 98 100 102 103 107 108 108 109 111 112 113 114 116 118 116 117 111 108 105 103 97 92 89 85 80 72 64 62 64 64 61 60 52 51 46 50 48 48 46 48 46 41 36
89 93 97 99 101 104 106 107 108 110 111 112 112 110 105 100 97 97 94 90 86 82 78 74 71 69 60 56 59 61 56 50 49 46 43 42 45 44 45 44 46 43 34 33
89 94 95 94 95 94 93 91 91 91 92 91 90 90 87 84 86 80 78 75 71 68 65 66 62 59 54 56 55 52 48 41 40 39 36 38 40 41 43 43 42 36 31 33
73 77 78 77 76 76 79 77 78 81 77 76 74 75 79 74 71 68 64 62 61 61 60 57 53 54 49 47 50 48 43 38 39 38 37 35 39 39 38 38 36 30 30 30
56 59 58 62 65 63 62 65 68 69 69 69 68 64 65 62 58 56 53 53 53 54 51 50 49 47 45 43 44 43 41 38 36 34 34 34 34 34 33 34 32 30 29 31
52 55 56 56 56 56 58 61 60 59 58 56 55 54 52 50 49 48 45 47 44 45 44 47 44 41 39 39 39 38 35 32 31 30 30 30 31 31 32 33 32 32 31 33
41 41 41 41 42 45 48 48 47 46 46 44 43 43 44 42 42 41 40 38 39 39 39 39 37 33 36 34 34 32 28 27 30 30 29 28 29 30 29 29 31 33 32 33
29 30 30 32 34 36 37 37 37 37 37 38 38 39 37 36 34 34 35 35 34 34 34 34 29 33 31 31 30 28 25 27 26 25 25 28 29 28 29 31 31 31 31 31
20 21 23 24 26 27 27 28 29 31 30 31 30 29 30 30 29 30 30 29 30 33 33 27 29 29 28 28 26 26 27 25 25 26 27 26 26 27 28 29 30 31 31 31
14 15 15 17 19 19 20 21 23 24 25 27 27 26 25 23 23 24 25 25 28 30 30 29 26 22 22 23 25 25 25 23 23 24 25 25 26 27 27 29 29 30 31 32
6 8 10 12 14 15 16 18 18 18 20 22 23 23 22 21 20 19 19 20 22 22 23 22 21 21 23 25 24 23 24 24 24 25 26 26 27 26 27 28 30 31 32 33
9 9 9 9 10 11 12 13 14 15 15 15 16 16 17 18 18 19 19 20 20 21 22 23 23 23 23 23 22 23 23 24 25 27 29 29 30 30 31 31 32 33 34 35

GFSNW_250_spd_195.txt.gz
Wind_Speed
93 90 88 88 88 85 78 80 77 74 75 78 81 75 72 71 72 73 78 81 83 83 81 82 85 84 89 90 93 94 98 99 91 95 101 105 105 105 113 117 117 125 125 119
108 100 99 95 94 94 88 84 89 87 79 88 82 84 86 83 82 83 83 78 82 87 88 88 91 96 98 99 100 102 104 106 105 103 105 107 109 113 120 123 125 119 121 121
112 111 103 103 101 101 96 89 94 97 88 91 86 84 92 98 99 98 96 92 86 88 89 93 92 97 100 103 105 108 113 110 109 108 111 116 114 112 116 124 125 126 129 132
128 123 111 113 108 104 102 99 99 102 97 94 94 94 95 100 104 102 103 91 93 95 93 97 101 105 108 108 111 111 116 112 116 112 116 119 117 113 123 120 122 133 132 137
139 133 124 117 116 116 114 106 106 104 104 99 99 101 102 103 102 107 103 99 102 105 103 105 109 108 110 107 110 112 113 111 120 121 124 127 124 121 128 129 127 133 138 142
136 135 132 131 128 125 128 123 115 120 116 105 105 102 106 105 108 111 105 106 111 110 110 111 112 113 109 114 114 119 120 127 126 121 129 131 127 128 132 137 138 144 147 148
115 131 132 137 137 135 135 128 127 126 121 113 103 106 102 104 109 105 118 118 123 126 117 117 120 124 126 123 122 119 120 126 132 132 134 136 130 131 137 143 141 146 146 137
100 102 120 129 130 125 127 123 117 126 119 120 121 108 104 103 110 114 118 121 123 119 118 124 119 120 124 123 120 119 125 128 134 135 134 136 129 136 141 145 139 140 136 134
93 93 95 94 97 103 104 103 111 117 120 119 118 114 114 121 116 124 128 121 124 130 128 126 125 125 130 126 127 119 125 131 134 133 137 137 135 139 141 144 139 136 130 112
86 80 77 80 84 81 74 84 91 89 99 113 117 116 121 124 124 127 121 116 117 129 136 137 135 136 134 133 133 127 125 129 129 130 138 137 138 141 140 135 131 117 105 95
85 82 82 79 84 83 80 86 87 92 96 107 111 111 110 124 128 124 124 130 133 134 134 141 137 134 127 121 116 120 123 126 128 133 136 138 141 133 131 121 107 96 88 81
86 87 88 93 94 98 102 103 105 106 109 112 117 121 124 130 130 132 127 128 136 137 136 124 115 117 115 115 110 115 119 126 126 130 128 130 132 118 107 95 87 82 76 70
92 91 85 89 96 101 107 108 111 111 116 117 116 113 121 125 125 128 124 118 114 113 112 114 116 116 117 116 117 123 125 127 128 130 121 115 105 93 87 81 76 69 63 59
96 94 93 93 94 95 96 98 97 97 100 104 106 106 109 108 108 110 113 114 115 114 115 117 120 119 118 115 118 121 130 123 119 108 98 92 84 78 74 71 64 59 55 53
91 93 95 97 98 99 100 98 98 99 102 106 107 108 109 111 113 113 116 117 117 116 117 118 118 118 119 119 120 119 114 106 96 82 81 73 69 65 60 55 54 51 51 51
88 91 93 95 98 100 101 103 103 103 106 110 111 113 113 114 114 114 114 114 114 115 116 117 117 120 115 106 103 102 93 84 78 72 69 63 62 57 55 49 50 49 48 47
88 91 92 93 96 98 99 100 102 105 107 109 111 112 112 111 110 111 112 110 109 107 107 106 104 104 98 92 87 79 76 70 65 63 58 57 55 51 51 46 46 47 45 42
85 87 89 90 91 93 95 97 99 101 103 106 108 108 106 103 103 101 98 99 98 97 95 93 88 83 80 77 69 68 62 58 56 53 51 51 52 48 48 46 46 43 41 39
70 73 76 79 84 88 91 91 94 94 95 95 95 94 91 88 85 85 86 85 83 79 78 74 69 70 68 63 60 56 52 50 47 43 42 42 42 42 42 43 41 39 37 36
62 64 67 70 75 76 77 77 75 73 73 74 78 78 76 75 74 72 70 68 65 63 64 59 60 60 58 54 50 47 45 42 40 38 36 35 34 35 35 36 36 35 35 35
45 49 52 54 55 54 56 58 59 63 63 63 63 61 60 59 58 58 55 55 53 55 54 51 54 53 51 45 42 42 42 40 37 35 34 33 34 33 34 34 34 34 33 34
38 40 39 38 38 38 41 45 47 48 48 47 48 47 46 47 48 48 48 49 49 48 47 47 47 46 45 41 39 38 37 36 34 34 35 33 31 31 32 32 32 31 31 33
25 26 28 29 32 35 36 37 37 38 37 37 38 38 38 39 40 40 41 40 41 42 40 39 38 39 39 38 36 36 34 31 31 34 31 31 32 31 30 30 29 29 30 31
21 22 25 26 26 26 28 30 30 30 31 32 33 32 31 31 32 33 33 34 34 34 32 31 32 32 33 34 33 32 32 31 30 30 31 32 32 30 30 30 30 29 27 28
12 14 15 16 17 19 20 22 23 23 24 25 25 25 24 24 25 25 27 29 29 30 29 28 29 29 29 32 31 31 32 31 31 30 28 29 30 30 30 30 30 29 29 29
5 8 9 10 12 13 15 16 16 18 19 19 20 21 23 23 22 22 23 24 26 26 26 27 28 29 29 30 31 30 28 29 29 30 30 28 29 29 28 28 29 31 32 32
8 9 9 9 10 11 12 14 14 15 16 17 18 19 19 19 20 22 22 23 24 25 25 25 25 25 26 27 27 27 27 29 30 30 30 30 29 29 30 32 33 34 35 36

GFSNW_250_spd_198.txt.gz
Wind_Speed
85 85 84 81 75 78 71 83 87 84 84 89 77 75 68 67 69 73 72 77 73 74 74 83 83 89 91 91 90 91 90 89 82 80 89 93 97 102 108 114 110 114 116 106
94 92 82 74 84 77 75 81 92 93 91 91 90 88 81 79 80 83 82 82 82 82 86 83 85 90 95 102 99 99 103 98 91 88 90 98 102 105 107 109 110 111 121 116
101 99 87 82 84 85 84 88 95 98 98 96 94 96 90 88 89 90 89 92 92 93 93 94 98 95 96 100 104 105 106 104 102 102 106 107 100 103 108 111 121 124 124 125
112 102 99 87 80 94 97 95 92 102 107 101 103 99 100 99 97 96 103 96 95 101 101 103 102 107 106 106 106 109 111 109 105 105 112 110 109 107 118 115 117 125 120 123
116 110 106 105 98 105 112 105 107 108 111 107 109 108 109 107 106 108 109 107 100 110 105 105 108 106 108 104 103 109 110 106 110 110 119 121 118 104 117 121 122 127 129 131
121 116 120 114 116 114 109 109 119 119 120 119 119 115 116 116 122 117 112 111 107 109 111 110 110 103 102 104 110 114 116 112 117 117 122 122 117 116 119 126 127 129 134 137
129 127 128 129 126 123 128 127 122 124 124 129 130 120 116 114 117 123 115 116 112 108 113 113 112 111 106 107 113 115 117 120 126 124 121 122 122 128 129 132 127 125 131 125
137 140 134 135 131 126 134 133 131 132 132 136 128 127 126 128 132 129 123 119 111 109 110 111 109 105 107 112 112 119 120 130 133 130 134 135 128 127 129 125 119 119 121 128
140 144 144 138 135 138 136 135 133 130 123 126 119 116 122 126 129 125 118 115 108 115 118 116 112 118 118 119 125 125 120 126 135 134 139 135 132 129 121 123 118 122 122 122
135 142 142 137 122 119 121 118 115 111 105 103 105 104 110 113 106 97 100 100 105 107 103 110 114 114 118 121 119 121 123 123 129 132 138 134 126 119 121 122 122 122 122 122
115 117 119 118 115 107 99 97 96 94 91 87 92 95 85 87 89 94 96 99 101 98 101 110 109 113 121 128 126 124 127 136 134 140 129 123 118 120 121 120 120 121 120 119
101 98 100 99 95 95 94 94 93 91 89 91 83 83 80 88 94 96 98 96 96 100 105 111 117 120 123 126 126 125 133 125 118 118 119 117 117 122 119 116 117 115 111 107
100 98 96 94 93 92 92 90 93 87 84 81 76 84 88 89 90 99 103 102 106 107 113 117 122 128 128 124 113 112 114 116 119 118 115 116 117 118 115 114 108 105 99 92
89 90 90 90 90 89 87 86 83 82 86 90 92 95 95 96 102 108 108 107 109 114 122 127 126 119 113 110 111 110 117 118 119 111 111 117 113 111 103 102 97 91 84 78
86 85 86 84 87 90 91 91 92 98 97 94 95 98 102 106 110 113 114 114 121 125 119 116 112 112 116 113 115 115 119 115 112 108 115 106 103 100 91 87 84 79 72 69
83 84 85 85 87 88 91 96 100 102 103 100 101 99 101 104 108 113 118 119 118 117 114 112 114 117 118 113 115 121 113 111 111 107 101 95 90 84 79 72 70 66 61 60
81 82 83 83 86 90 92 96 101 105 107 103 101 103 106 109 110 112 114 114 113 112 113 113 114 116 115 116 116 116 107 105 99 94 88 83 77 71 67 61 58 55 52 49
79 80 81 82 84 88 92 95 99 101 102 103 103 106 108 110 112 112 112 113 111 111 111 111 112 111 110 107 108 99 97 91 88 81 73 69 67 61 59 53 49 47 45 43
76 78 80 82 85 87 89 91 93 95 97 98 102 105 107 107 108 110 111 111 110 105 102 103 101 99 98 95 93 88 82 78 72 64 60 58 59 55 51 49 44 43 42 37
72 76 81 83 86 87 88 90 92 94 96 99 101 102 103 105 105 101 95 91 93 93 92 87 83 85 85 81 78 73 66 61 57 56 54 52 51 51 49 47 45 43 42 38
64 68 72 76 78 80 81 84 86 88 90 91 91 90 89 88 87 84 81 80 77 79 76 71 71 73 70 65 62 58 51 51 53 51 48 44 43 44 42 40 40 40 39 38
54 57 58 60 62 65 68 71 73 75 76 76 75 75 75 74 72 70 68 66 65 64 62 59 61 58 56 53 52 49 47 45 46 43 42 41 39 37 36 37 36 37 36 35
43 46 47 47 49 53 56 59 60 61 59 60 59 59 59 59 58 56 54 53 53 52 50 50 49 49 48 45 45 45 40 40 40 39 39 40 36 33 33 33 33 33 32 32
26 29 33 38 38 38 40 40 43 44 44 43 42 43 43 44 44 43 43 42 41 40 40 39 40 41 41 41 40 41 38 38 40 37 36 37 33 33 33 32 31 30 30 31
15 17 18 20 21 23 25 27 28 30 31 32 32 33 33 33 33 34 35 34 34 33 33 32 33 34 35 35 35 34 34 33 34 32 32 33 30 31 33 32 31 30 29 29
6 9 12 13 15 17 18 20 21 22 23 23 23 23 23 23 24 24 25 25 25 26 27 27 27 28 30 30 31 30 29 29 29 29 31 31 30 32 33 33 33 32 31 31
2 3 5 8 9 9 9 10 11 12 13 15 17 18 18 19 20 21 20 21 22 23 23 24 24 24 25 26 26 27 28 27 27 28 30 31 30 32 33 34 34 34 34 34

GFSNW_250_spd_204.txt.gz
Wind_Speed
100 97 91 87 83 82 83 84 86 81 81 77 77 66 61 73 66 70 67 65 66 63 65 62 64 69 68 65 70 70 68 73 77 81 84 89 92 94 99 104 103 102 103 93
106 101 95 93 88 88 84 87 91 87 86 87 77 79 75 72 77 72 69 68 69 71 65 70 72 73 72 73 77 79 80 83 85 90 91 93 99 105 108 107 103 106 108 100
109 101 102 98 95 93 91 94 94 92 90 86 84 83 81 78 78 75 75 79 74 73 74 72 73 79 84 85 88 91 94 94 93 100 106 104 106 108 105 107 111 113 111 105
116 106 103 103 101 101 100 102 102 92 92 88 85 85 83 82 82 86 85 82 82 79 87 83 79 83 87 90 94 98 101 100 102 105 107 111 111 111 114 116 116 123 116 117
124 118 110 105 102 106 107 107 109 98 94 89 90 92 87 88 90 89 90 81 85 91 89 91 90 88 93 96 97 103 108 111 111 113 111 110 112 116 116 120 125 130 132 115
128 124 120 116 108 109 104 105 103 101 100 93 90 87 87 92 96 93 94 93 89 91 96 102 97 94 96 99 107 110 115 116 116 116 113 115 115 120 125 124 129 131 120 118
137 133 130 123 123 119 117 109 109 106 107 103 93 90 91 96 97 96 95 99 106 100 104 105 106 111 111 110 106 111 115 112 119 121 121 119 120 122 126 128 124 119 113 113
151 142 138 135 130 121 120 117 119 115 114 108 101 97 99 99 102 103 102 100 108 109 113 115 112 115 117 112 111 113 117 120 124 125 124 121 126 124 127 134 120 115 113 108
154 157 142 133 132 130 129 119 121 115 117 115 109 104 104 106 107 107 110 107 109 113 119 122 116 117 119 126 125 123 129 124 127 131 129 123 131 137 140 123 114 113 112 109
134 142 145 142 138 137 128 124 120 115 120 119 115 113 114 112 111 113 113 117 121 124 123 125 127 129 124 126 130 126 130 128 132 139 144 143 142 138 122 115 110 107 106 104
116 121 128 129 133 137 132 131 126 124 126 123 121 123 119 116 116 117 122 125 123 122 126 129 130 134 136 134 131 132 138 145 144 143 142 131 131 127 115 112 107 105 105 105
102 103 105 116 130 136 135 137 134 131 134 135 129 127 126 124 126 123 125 131 127 124 130 133 135 136 138 141 142 138 137 138 140 135 133 122 120 116 114 112 107 106 106 110
95 97 96 104 121 130 133 134 138 138 131 134 134 133 132 130 129 132 132 134 134 132 133 138 140 140 141 134 135 138 138 129 129 129 120 120 118 118 118 114 110 109 111 113
90 91 90 93 102 113 114 118 123 130 130 129 132 129 131 133 135 136 139 140 140 141 141 142 142 146 142 138 138 132 126 125 123 121 120 117 118 118 117 114 115 113 116 121
73 79 86 88 91 99 106 111 117 118 121 125 128 129 129 130 135 138 139 141 139 143 144 147 141 142 143 135 127 124 125 119 119 119 115 110 113 119 115 113 115 116 120 124
62 68 78 85 91 99 101 109 117 121 122 125 124 126 130 131 130 131 131 134 133 135 137 135 137 138 129 125 126 128 119 118 118 114 109 108 115 113 116 114 115 117 119 111
54 62 71 82 86 88 97 104 109 113 121 125 123 123 124 126 127 127 127 130 133 135 135 131 124 123 119 119 122 117 116 113 112 112 109 110 115 115 115 113 114 112 103 91
51 58 68 79 87 93 99 102 107 111 115 119 122 124 124 125 126 128 129 126 125 126 125 121 117 114 114 110 115 109 109 109 109 111 112 113 113 112 110 109 104 95 87 78
48 55 63 73 81 88 95 99 101 104 108 112 113 115 116 118 120 120 122 123 120 118 118 117 113 110 106 106 105 104 105 108 111 113 112 110 107 104 101 94 87 81 75 69
44 50 58 66 74 82 88 93 98 100 103 106 108 111 115 116 116 116 116 116 116 115 113 108 106 103 101 99 100 102 105 109 110 108 104 99 95 90 85 81 77 71 67 63
40 47 53 60 67 74 81 86 91 96 100 103 105 107 108 108 108 109 109 108 106 104 101 98 97 95 95 95 96 100 105 106 101 95 90 85 80 76 75 71 66 62 60 58
33 37 42 49 56 61 66 71 75 79 83 85 87 89 90 92 93 94 93 93 92 90 89 89 91 90 88 88 90 90 88 85 80 76 73 69 67 66 64 63 60 57 53 50
32 35 39 43 47 51 55 59 62 65 68 70 73 74 76 77 79 79 80 79 83 82 84 85 85 85 81 78 75 73 69 68 67 63 61 60 59 59 56 55 54 52 48 46
32 35 38 41 43 46 49 51 53 56 59 59 59 63 66 68 71 73 73 76 76 79 77 74 71 67 65 64 64 63 62 59 58 57 56 56 55 54 53 50 49 48 43 41
25 28 30 33 35 37 41 44 46 46 47 50 54 57 60 64 64 63 62 63 62 60 60 59 58 57 56 57 57 55 54 53 51 50 49 48 47 46 46 46 45 43 42 38
13 16 19 21 24 26 29 31 34 36 38 40 42 43 45 47 48 48 49 49 49 50 50 51 50 50 50 50 50 48 46 45 45 44 43 42 41 40 39 38 38 38 39 37
6 9 12 13 16 18 21 23 25 26 28 30 33 35 37 37 38 39 42 42 43 44 44 43 43 42 42 41 41 40 40 39 38 38 38 38 37 36 36 36 36 35 35 33